RH
81 73 66 62 66 71 87 94 91 88 87 77 66 57 53 51 55 59 52 41 37 35 42 46 46 43 40 36 34 31 25 21 16 11 11 20 44 34 12 14 7 8 10
97 94 78 72 67 65 67 75 81 73 68 59 51 50 50 55 62 60 53 40 37 38 43 50 48 45 43 40 37 32 23 17 11 8 5 9 21 45 30 31 13 5 7
98 98 100 98 86 82 70 63 62 60 58 54 52 54 59 66 68 62 51 40 39 42 50 53 50 48 45 42 35 28 18 13 9 8 5 7 16 37 37 19 11 7 4
97 95 97 98 98 93 89 76 68 67 62 62 56 62 72 80 75 63 51 40 42 51 56 57 55 51 48 44 36 26 17 13 8 6 7 12 24 36 25 15 9 10 8
97 96 96 96 97 89 97 96 85 75 73 76 72 76 83 84 74 66 50 44 52 64 67 63 62 54 50 41 35 25 17 12 6 5 5 17 28 24 42 38 12 9 14
97 97 96 96 97 97 97 94 99 92 88 87 88 86 86 80 73 70 57 56 61 77 75 68 68 64 51 40 32 18 13 8 6 5 6 11 27 34 31 26 47 41 24
97 96 96 96 96 97 97 96 97 91 88 94 91 92 80 78 82 83 86 84 88 87 77 69 66 68 53 39 32 14 10 7 4 4 8 8 5 15 36 32 24 12 19
95 97 96 96 97 96 97 96 97 90 95 98 98 92 82 81 87 94 95 96 93 89 78 69 66 64 58 41 30 16 10 6 4 3 6 7 3 4 14 34 29 27 18
97 96 97 97 97 97 96 96 95 87 93 96 97 96 81 81 95 93 91 92 90 86 80 75 71 65 60 46 33 24 20 13 4 3 4 5 3 3 4 10 20 22 22
96 96 91 96 97 97 96 95 96 97 98 96 96 97 83 85 97 96 95 95 92 89 87 78 80 75 68 52 42 33 22 15 9 4 3 3 3 3 3 5 6 7 9
70 87 96 96 97 96 96 97 97 97 98 98 96 97 96 96 97 95 97 96 84 84 82 90 87 84 82 71 51 42 16 7 5 4 3 2 2 2 3 4 7 10 11
14 32 82 95 96 95 94 97 97 97 97 96 97 97 96 96 99 89 98 96 98 87 89 92 93 90 84 75 56 33 16 10 7 4 3 2 2 3 3 3 7 11 14
15 14 26 47 86 92 93 97 95 94 97 98 97 96 97 97 96 100 99 90 93 95 96 94 93 97 88 67 47 22 26 30 22 6 3 3 3 3 3 4 7 12 17
22 18 15 14 15 33 89 92 97 97 96 97 97 96 97 97 96 98 98 98 94 93 88 78 90 98 93 68 50 33 42 48 41 21 18 9 3 3 4 4 5 9 14
26 28 23 19 17 16 18 53 42 48 85 96 98 96 97 96 97 97 95 93 84 93 93 80 59 46 84 91 84 84 93 84 75 53 11 4 3 3 4 4 5 7 9
13 26 35 35 25 20 16 21 32 21 26 76 93 98 94 97 95 96 98 97 96 79 55 63 73 57 34 25 36 45 29 9 4 4 5 4 3 3 4 5 5 5 6
14 12 14 35 49 36 23 20 18 17 15 28 54 71 93 96 95 97 96 98 98 97 85 77 77 75 38 15 10 13 7 5 4 5 5 4 4 4 4 4 5 5 5
15 14 13 15 25 43 53 36 23 20 17 18 23 46 59 77 98 98 97 96 96 84 88 82 59 16 20 23 19 11 5 4 4 4 4 4 4 4 4 4 4 4 4
28 21 16 16 17 23 39 49 61 39 24 19 18 22 39 52 60 86 97 97 80 88 83 50 47 61 24 11 9 9 5 4 4 4 4 4 4 4 4 4 4 4 4
38 32 28 20 18 18 18 23 44 75 71 35 26 22 22 26 34 63 72 92 95 93 89 94 72 24 10 8 11 7 6 6 6 7 7 6 6 7 8 9 11 14 15
41 46 41 37 29 22 20 21 24 31 48 75 62 33 29 28 28 33 43 81 99 96 91 90 94 93 75 34 45 41 23 14 15 17 18 19 20 20 19 19 18 17 17
21 34 40 48 49 43 32 28 26 33 46 63 81 84 58 39 35 34 33 35 42 69 97 98 77 72 70 85 72 37 28 26 25 24 22 22 20 20 20 19 18 17 17
40 20 18 29 36 47 54 50 41 37 32 41 56 79 88 85 67 46 39 36 34 34 34 43 64 74 70 44 28 26 27 25 23 24 22 20 23 21 20 19 19 18 17
65 44 29 21 23 34 41 49 58 59 53 48 48 58 80 93 96 95 81 64 51 43 37 34 33 35 35 39 46 31 28 26 24 23 22 21 23 24 28 30 33 40 44
64 80 76 57 32 26 23 28 38 48 63 68 64 63 65 71 85 93 92 96 96 90 73 63 59 53 53 51 49 46 41 38 35 37 37 25 29 39 59 63 63 62 55
58 67 70 70 75 77 62 44 30 24 25 37 52 70 75 76 79 79 77 86 98 98 100 100 100 96 89 83 83 84 85 83 77 72 78 65 63 54 47 45 38 32 28
Wind_Speed
50 49 46 46 45 44 41 39 37 36 35 34 33 32 30 28 26 23 22 21 20 20 18 21 20 20 19 18 18 17 19 21 21 20 20 17 15 13 11 12 13 11 10
47 47 49 49 48 47 46 44 43 42 40 38 37 37 35 32 30 28 26 24 24 21 22 21 22 22 21 20 19 19 19 20 21 21 19 18 14 13 13 12 11 11 10
43 43 51 55 49 51 49 49 47 47 45 44 42 41 39 36 34 32 30 28 25 24 23 22 23 24 22 22 21 19 19 20 20 22 20 18 15 13 12 11 8 10 9
60 42 50 52 51 53 53 51 49 47 47 47 45 43 41 38 36 35 33 31 28 26 26 25 25 26 25 24 22 22 19 20 21 21 20 19 15 13 11 12 8 8 6
53 56 50 47 47 54 58 55 52 49 50 50 47 44 43 41 39 39 36 35 32 28 28 28 26 28 28 26 24 22 22 20 19 20 19 16 13 12 10 11 10 8 6
65 63 50 50 52 55 57 57 54 55 54 55 51 47 47 45 43 40 39 37 35 32 32 31 30 29 30 30 26 24 23 23 22 20 19 17 15 15 12 9 11 14 13
61 54 59 60 54 55 43 52 55 50 44 54 58 57 54 49 45 44 39 39 37 36 34 34 33 31 32 32 29 26 25 24 24 23 20 21 19 19 19 14 12 11 9
71 76 58 57 62 55 56 48 51 54 49 59 48 62 52 52 52 48 43 41 39 37 37 35 34 33 34 34 32 29 27 27 26 26 24 23 23 22 22 22 18 18 16
67 70 63 60 69 73 64 56 54 55 51 54 50 65 48 53 49 49 51 48 46 44 43 40 39 37 36 37 35 32 30 30 30 30 28 28 27 25 25 25 24 24 23
55 66 62 62 61 67 60 56 64 60 59 57 63 53 61 51 54 57 54 53 52 47 45 45 45 43 40 41 39 37 35 35 34 34 33 31 31 29 30 27 27 27 26
60 60 58 62 53 57 57 63 59 60 56 59 58 62 65 59 60 57 62 59 50 52 54 47 49 50 47 45 47 45 40 37 38 37 37 34 35 34 33 31 29 30 30
59 59 61 59 57 50 47 56 60 56 55 64 66 68 61 60 58 55 39 54 49 50 45 47 51 53 54 51 50 46 41 39 40 40 40 38 38 38 36 35 33 33 33
60 57 60 62 61 61 64 55 56 57 49 56 63 64 61 63 74 66 65 62 60 57 56 52 49 51 54 55 51 44 41 40 40 42 43 42 42 42 41 39 36 36 36
64 63 62 60 58 54 59 63 55 50 52 44 43 50 61 65 69 71 65 65 63 64 57 55 47 50 57 55 53 48 46 46 46 44 44 47 46 45 45 43 41 40 39
63 63 62 61 58 55 56 62 60 60 68 69 57 47 56 62 68 71 77 74 59 55 55 52 49 49 55 58 54 56 59 54 50 51 52 52 49 49 48 46 45 43 44
63 64 63 62 60 60 59 58 63 61 60 74 77 65 58 56 65 63 61 62 61 55 54 53 53 51 51 51 52 53 54 55 54 53 52 52 52 51 51 50 49 48 48
63 63 64 65 63 61 60 60 60 60 60 61 67 71 62 52 54 57 57 53 53 55 53 49 52 54 52 51 51 54 54 53 52 52 52 53 53 54 53 53 52 52 52
60 62 63 63 64 65 63 62 60 61 60 59 59 60 61 56 56 54 56 54 48 48 51 50 51 52 53 53 52 53 55 53 53 53 53 53 54 55 56 56 56 56 56
62 62 61 63 64 64 63 64 64 62 62 62 61 59 59 59 56 61 60 58 60 54 51 53 55 56 56 56 57 57 56 54 53 53 54 54 55 57 58 58 59 59 59
65 65 64 63 65 65 65 65 64 63 64 64 64 63 62 60 61 61 62 64 60 59 61 58 57 58 59 59 58 58 58 56 57 57 56 58 59 60 62 62 63 64 65
67 67 66 65 65 64 67 67 67 67 65 65 67 67 66 65 63 63 63 64 65 63 61 61 63 63 64 64 65 65 64 62 62 63 63 64 64 65 66 67 68 70 71
65 67 68 68 67 66 65 65 68 67 67 66 65 67 69 69 68 68 66 66 67 68 70 70 68 69 70 71 73 69 68 67 68 70 69 67 70 70 71 72 73 74 75
65 64 66 69 69 69 69 68 67 68 69 70 69 69 68 70 73 73 72 71 71 71 71 73 75 77 76 76 74 72 74 74 73 72 73 71 73 73 75 76 78 78 79
66 65 65 66 67 69 70 70 70 70 70 70 70 71 71 70 70 71 73 75 75 76 76 76 76 75 76 78 80 79 77 76 76 77 79 77 77 75 75 76 78 78 79
70 71 70 68 66 66 68 69 71 71 71 72 73 72 71 72 73 71 71 71 72 75 76 77 78 78 77 77 78 77 79 79 79 79 80 81 78 75 72 71 71 71 73
70 71 70 70 70 72 72 70 68 68 69 71 72 72 73 74 73 73 74 74 72 73 72 72 71 73 73 74 74 72 71 71 71 71 73 72 69 70 69 68 70 73 76
Wind_Direction
242 238 237 238 239 242 241 242 243 244 244 246 248 249 250 252 253 253 256 257 255 271 279 289 285 279 280 284 289 294 300 306 312 320 323 324 318 313 315 325 324 321 335
230 231 235 239 238 241 242 243 244 245 246 248 249 252 254 255 254 253 253 254 256 262 273 278 273 271 272 277 282 284 294 303 308 316 320 321 322 310 304 309 314 312 319
225 226 232 238 237 242 242 242 243 245 247 250 251 255 256 257 256 259 257 255 254 262 265 268 261 263 264 270 275 276 288 296 304 310 314 316 320 308 300 301 305 308 313
222 223 222 233 238 241 242 243 243 245 249 250 250 252 255 255 256 257 258 255 254 254 259 260 259 258 258 261 266 274 279 290 299 304 309 318 320 314 291 288 286 290 301
229 229 221 232 228 247 243 242 245 246 251 252 251 251 253 254 255 256 254 251 247 246 251 254 259 256 256 260 263 268 277 281 287 293 297 306 317 326 316 280 281 280 287
223 227 231 231 232 227 235 242 246 249 254 251 252 253 253 255 255 253 252 247 244 243 243 245 249 254 255 258 260 266 272 276 279 279 282 282 288 296 306 325 290 277 275
230 226 230 230 237 239 227 238 241 247 256 250 252 255 254 254 251 254 246 244 243 246 245 248 249 249 250 256 258 262 265 268 271 271 268 274 279 281 281 286 295 298 295
243 237 237 234 240 231 236 235 238 243 241 234 232 254 249 255 255 246 244 243 244 248 249 250 251 250 247 251 257 259 261 264 264 263 262 262 269 274 275 272 278 287 292
239 233 236 239 235 236 244 235 235 237 233 235 248 229 253 261 251 246 250 245 246 250 251 251 252 250 248 247 252 256 261 262 262 262 259 257 262 268 271 270 269 271 276
242 242 247 246 239 240 241 240 237 234 236 242 226 231 249 258 245 256 253 245 249 249 247 251 253 251 250 248 248 252 255 258 260 260 259 257 258 261 266 266 269 270 271
253 250 247 238 240 239 236 228 233 231 231 227 235 248 234 254 248 249 248 247 249 248 248 246 248 253 252 251 249 249 251 254 256 257 257 256 258 258 261 265 263 264 266
252 254 253 252 240 235 243 240 234 242 245 243 240 244 246 246 235 238 230 236 235 247 246 246 247 249 251 249 248 247 249 253 257 257 257 255 258 259 258 260 260 261 263
252 252 251 256 255 249 250 257 250 241 233 239 238 236 234 237 238 242 237 245 237 241 247 250 249 246 245 243 241 246 248 254 256 258 258 257 256 258 259 260 260 260 263
248 250 252 251 252 253 252 255 240 233 227 252 244 232 230 227 228 234 236 241 244 246 248 251 248 242 242 240 242 245 251 252 254 256 256 258 256 256 258 260 261 260 261
248 248 250 253 254 253 254 256 260 260 265 252 253 257 243 236 239 242 244 244 238 242 246 246 246 245 243 244 251 251 252 249 250 255 257 255 256 257 258 260 261 263 264
248 248 249 250 251 252 253 253 258 261 264 265 268 269 266 262 248 243 245 242 235 234 238 242 245 247 248 249 249 251 252 254 254 254 255 255 255 257 259 261 261 263 264
248 249 249 248 249 249 251 252 252 255 258 261 267 273 269 260 264 255 242 241 243 239 236 244 247 248 252 252 253 253 253 255 255 254 253 254 255 257 259 260 262 263 265
249 250 250 251 251 251 251 251 251 252 252 255 258 263 269 266 257 260 255 250 248 252 253 250 254 253 251 254 254 255 254 254 255 255 255 255 256 257 259 261 262 264 265
248 250 251 250 251 252 252 253 253 252 252 253 254 255 257 261 259 258 258 252 248 244 252 254 254 255 256 253 253 254 254 254 254 256 257 257 257 259 260 262 264 265 267
247 247 249 251 250 250 252 253 254 255 254 253 253 254 254 254 255 255 259 264 260 250 247 253 255 257 256 255 255 255 254 254 256 256 257 258 259 260 263 264 265 267 268
250 249 249 249 251 252 251 252 253 254 255 255 253 253 253 254 253 254 254 253 256 257 258 257 256 257 259 260 256 257 257 257 257 257 258 260 261 263 264 266 267 268 271
250 249 250 250 250 250 252 253 254 257 257 257 256 254 253 254 254 254 254 254 253 253 256 253 256 258 258 258 259 259 260 261 261 261 262 264 264 266 268 270 270 271 272
250 251 252 252 252 252 251 251 252 253 254 256 257 256 255 254 254 254 254 254 254 254 253 253 256 257 257 260 261 261 261 261 262 265 266 265 269 270 271 273 274 275 276
251 251 252 252 253 254 254 254 254 253 253 254 254 255 256 256 255 254 254 255 256 256 256 257 256 256 256 258 260 262 263 264 265 266 267 267 270 272 273 275 276 277 277
252 252 252 252 252 254 254 255 255 255 255 255 254 254 255 256 257 257 256 256 256 256 256 257 259 260 261 261 262 263 264 265 266 268 269 269 270 271 272 273 274 274 275
252 252 252 252 253 254 254 255 255 256 256 257 257 257 256 256 256 257 258 259 258 258 259 259 259 259 260 261 262 262 262 263 264 265 266 268 269 269 270 271 274 275 276